Station Historical Data
Daily Summary for February 2, 2018 Units:  English    Metric   Both
« Previous Day
Next Day »
Daily Weekly Monthly Yearly Custom
  High: Low: Average:
Temperature: TemperatureF °F 11.9 °F 14.1 °F
Dew Point: DewpointF °F 0.9 °F 5.4 °F
Humidity: Humidity% 56% 68%
Wind Speed: WindSpeedMPHmph 1.0mph 6mph
Wind Gust: WindSpeedGustMPHmph - -
Wind- - West
Pressure: PressureIn in 30.07 in -
Precipitation: 0.00 in    
Historical Graphs
 
 
Tabular Data for February 2, 2018
Time Temperature Dew Point Pressure Wind Wind Speed Wind Gust Humidity Rainfall Rate (Hourly)
TemperatureF °F DewpointF °F PressureIn in Calm     Humidity% HourlyPrecipIn in
00:04 18.5 °F 11.6 °F 30.07 in WNW 3.0 mph 10.0 mph 74% 0.00 in
00:09 18.5 °F 11.9 °F 30.07 in NW 5.0 mph 9.0 mph 75% 0.00 in
00:14 18.5 °F 11.9 °F 30.07 in NW 6.0 mph 10.0 mph 75% 0.00 in
00:19 18.2 °F 11.6 °F 30.07 in WNW 7.0 mph 13.0 mph 75% 0.00 in
00:24 18.0 °F 11.7 °F 30.07 in WNW 7.0 mph 13.0 mph 76% 0.00 in
00:29 18.0 °F 11.7 °F 30.07 in NW 5.0 mph 11.0 mph 76% 0.00 in
00:34 18.0 °F 11.7 °F 30.07 in WNW 7.0 mph 11.0 mph 76% 0.00 in
00:39 17.8 °F 11.5 °F 30.07 in West 3.0 mph 11.0 mph 76% 0.00 in
00:44 17.7 °F 11.4 °F 30.07 in WNW 11.0 mph 11.0 mph 76% 0.00 in
00:49 17.6 °F 11.3 °F 30.07 in WNW 5.0 mph 12.0 mph 76% 0.00 in
00:54 17.6 °F 11.0 °F 30.07 in West 6.0 mph 12.0 mph 75% 0.00 in
00:59 17.6 °F 10.7 °F 30.07 in West 6.0 mph 10.0 mph 74% 0.00 in
01:04 17.7 °F 10.5 °F 30.07 in West 5.0 mph 9.0 mph 73% 0.00 in
01:09 17.7 °F 9.9 °F 30.07 in West 5.0 mph 11.0 mph 71% 0.00 in
01:14 17.6 °F 9.2 °F 30.08 in North 7.0 mph 14.0 mph 69% 0.00 in
01:19 17.5 °F 8.4 °F 30.08 in West 7.0 mph 16.0 mph 67% 0.00 in
01:24 17.3 °F 7.9 °F 30.08 in WNW 7.0 mph 16.0 mph 66% 0.00 in
01:29 17.2 °F 7.8 °F 30.08 in WNW 3.0 mph 11.0 mph 66% 0.00 in
01:34 17.0 °F 7.3 °F 30.08 in WNW 7.0 mph 14.0 mph 65% 0.00 in
01:39 16.6 °F 6.5 °F 30.08 in WNW 3.0 mph 14.0 mph 64% 0.00 in
01:44 16.4 °F 6.7 °F 30.08 in NW 8.0 mph 11.0 mph 65% 0.00 in
01:49 16.1 °F 6.4 °F 30.08 in West 5.0 mph 16.0 mph 65% 0.00 in
01:54 16.0 °F 6.3 °F 30.08 in WNW 7.0 mph 16.0 mph 65% 0.00 in
01:59 15.9 °F 6.2 °F 30.09 in WNW 6.0 mph 12.0 mph 65% 0.00 in
02:04 15.8 °F 6.4 °F 30.09 in WNW 6.0 mph 13.0 mph 66% 0.00 in
02:09 15.7 °F 6.3 °F 30.09 in West 7.0 mph 15.0 mph 66% 0.00 in
02:14 15.6 °F 6.6 °F 30.09 in West 6.0 mph 13.0 mph 67% 0.00 in
02:19 15.4 °F 6.7 °F 30.09 in West 7.0 mph 13.0 mph 68% 0.00 in
02:24 15.4 °F 6.7 °F 30.10 in WNW 6.0 mph 13.0 mph 68% 0.00 in
02:29 15.3 °F 6.6 °F 30.10 in WNW 6.0 mph 14.0 mph 68% 0.00 in
02:34 15.1 °F 6.4 °F 30.10 in WNW 6.0 mph 14.0 mph 68% 0.00 in
02:39 15.2 °F 6.5 °F 30.10 in WNW 8.0 mph 15.0 mph 68% 0.00 in
02:44 15.1 °F 6.4 °F 30.10 in WNW 13.0 mph 13.0 mph 68% 0.00 in
02:49 15.1 °F 6.4 °F 30.10 in NNW 4.0 mph 15.0 mph 68% 0.00 in
02:54 15.0 °F 6.3 °F 30.10 in WNW 6.0 mph 13.0 mph 68% 0.00 in
02:59 14.8 °F 6.1 °F 30.10 in West 6.0 mph 13.0 mph 68% 0.00 in
03:04 14.7 °F 6.0 °F 30.10 in West 6.0 mph 14.0 mph 68% 0.00 in
03:09 14.5 °F 5.9 °F 30.10 in West 10.0 mph 11.0 mph 68% 0.00 in
03:14 14.4 °F 5.8 °F 30.10 in West 6.0 mph 10.0 mph 68% 0.00 in
03:19 14.4 °F 6.1 °F 30.10 in WNW 3.0 mph 12.0 mph 69% 0.00 in
03:24 14.3 °F 6.0 °F 30.10 in West 7.0 mph 13.0 mph 69% 0.00 in
03:29 14.3 °F 6.0 °F 30.10 in WNW 6.0 mph 13.0 mph 69% 0.00 in
03:34 14.3 °F 6.0 °F 30.11 in West 6.0 mph 13.0 mph 69% 0.00 in
03:39 14.2 °F 5.9 °F 30.11 in West 6.0 mph 13.0 mph 69% 0.00 in
03:49 14.2 °F 6.2 °F 30.11 in West 8.0 mph 9.0 mph 70% 0.00 in
03:54 14.2 °F 6.2 °F 30.11 in West 5.0 mph 13.0 mph 70% 0.00 in
03:59 14.2 °F 6.2 °F 30.11 in West 5.0 mph 12.0 mph 70% 0.00 in
04:04 14.1 °F 6.1 °F 30.11 in NW 6.0 mph 11.0 mph 70% 0.00 in
04:09 14.0 °F 6.0 °F 30.11 in West 6.0 mph 13.0 mph 70% 0.00 in
04:14 14.0 °F 6.0 °F 30.11 in WNW 7.0 mph 15.0 mph 70% 0.00 in
04:24 13.9 °F 6.2 °F 30.12 in West 10.0 mph 17.0 mph 71% 0.00 in
04:29 13.9 °F 6.2 °F 30.12 in West 10.0 mph 15.0 mph 71% 0.00 in
04:34 13.9 °F 6.2 °F 30.12 in West 8.0 mph 15.0 mph 71% 0.00 in
04:39 13.9 °F 6.5 °F 30.12 in West 7.0 mph 14.0 mph 72% 0.00 in
04:44 14.0 °F 6.6 °F 30.12 in West 7.0 mph 14.0 mph 72% 0.00 in
04:49 14.0 °F 6.6 °F 30.12 in West 8.0 mph 15.0 mph 72% 0.00 in
04:54 14.0 °F 6.6 °F 30.12 in West 8.0 mph 16.0 mph 72% 0.00 in
04:59 14.1 °F 7.0 °F 30.13 in West 8.0 mph 16.0 mph 73% 0.00 in
05:04 14.1 °F 7.0 °F 30.13 in West 11.0 mph 13.0 mph 73% 0.00 in
05:09 14.1 °F 7.0 °F 30.13 in West 7.0 mph 14.0 mph 73% 0.00 in
05:14 14.1 °F 7.0 °F 30.13 in West 5.0 mph 13.0 mph 73% 0.00 in
05:19 13.9 °F 7.1 °F 30.13 in West 9.0 mph 16.0 mph 74% 0.00 in
05:24 13.8 °F 6.7 °F 30.14 in WNW 8.0 mph 14.0 mph 73% 0.00 in
05:29 13.7 °F 6.9 °F 30.13 in West 7.0 mph 12.0 mph 74% 0.00 in
05:34 13.6 °F 6.8 °F 30.14 in WNW 7.0 mph 14.0 mph 74% 0.00 in
05:39 13.5 °F 6.8 °F 30.14 in West 7.0 mph 14.0 mph 74% 0.00 in
05:44 13.4 °F 6.7 °F 30.14 in West 6.0 mph 14.0 mph 74% 0.00 in
05:49 13.3 °F 6.6 °F 30.15 in West 6.0 mph 14.0 mph 74% 0.00 in
05:54 13.2 °F 6.8 °F 30.15 in West 6.0 mph 13.0 mph 75% 0.00 in
05:59 13.1 °F 6.7 °F 30.15 in West 6.0 mph 11.0 mph 75% 0.00 in
06:04 13.1 °F 6.7 °F 30.15 in WSW 7.0 mph 11.0 mph 75% 0.00 in
06:09 13.1 °F 6.7 °F 30.16 in WNW 4.0 mph 11.0 mph 75% 0.00 in
06:14 13.1 °F 6.7 °F 30.16 in West 7.0 mph 14.0 mph 75% 0.00 in
06:19 13.2 °F 6.8 °F 30.16 in West 7.0 mph 14.0 mph 75% 0.00 in
06:24 13.2 °F 6.8 °F 30.16 in WSW 5.0 mph 14.0 mph 75% 0.00 in
06:29 13.2 °F 6.8 °F 30.16 in West 10.0 mph 11.0 mph 75% 0.00 in
06:34 13.3 °F 7.1 °F 30.17 in WNW 5.0 mph 11.0 mph 76% 0.00 in
06:39 13.4 °F 7.0 °F 30.17 in West 4.0 mph 12.0 mph 75% 0.00 in
06:44 13.3 °F 7.1 °F 30.17 in West 7.0 mph 15.0 mph 76% 0.00 in
06:49 13.3 °F 7.1 °F 30.17 in West 7.0 mph 15.0 mph 76% 0.00 in
06:54 13.3 °F 7.1 °F 30.17 in West 7.0 mph 15.0 mph 76% 0.00 in
06:59 13.3 °F 7.4 °F 30.18 in West 6.0 mph 14.0 mph 77% 0.00 in
07:04 13.3 °F 7.4 °F 30.18 in West 7.0 mph 12.0 mph 77% 0.00 in
07:09 13.4 °F 7.5 °F 30.18 in WNW 6.0 mph 10.0 mph 77% 0.00 in
07:14 13.5 °F 7.6 °F 30.18 in WSW 5.0 mph 11.0 mph 77% 0.00 in
07:19 13.5 °F 7.9 °F 30.19 in West 6.0 mph 12.0 mph 78% 0.00 in
07:24 13.4 °F 7.8 °F 30.19 in NW 6.0 mph 11.0 mph 78% 0.00 in
07:29 13.4 °F 7.8 °F 30.19 in West 3.0 mph 12.0 mph 78% 0.00 in
07:34 13.3 °F 7.7 °F 30.20 in WNW 5.0 mph 12.0 mph 78% 0.00 in
07:39 13.3 °F 8.0 °F 30.20 in West 9.0 mph 12.0 mph 79% 0.00 in
07:44 13.3 °F 8.0 °F 30.20 in NW 5.0 mph 12.0 mph 79% 0.00 in
07:49 13.2 °F 7.9 °F 30.21 in WNW 6.0 mph 12.0 mph 79% 0.00 in
07:54 13.2 °F 8.2 °F 30.21 in WNW 5.0 mph 11.0 mph 80% 0.00 in
07:59 13.0 °F 8.0 °F 30.21 in WNW 5.0 mph 11.0 mph 80% 0.00 in
08:04 12.9 °F 7.9 °F 30.22 in WNW 4.0 mph 11.0 mph 80% 0.00 in
08:09 12.7 °F 7.7 °F 30.22 in NW 4.0 mph 11.0 mph 80% 0.00 in
08:14 12.6 °F 7.6 °F 30.23 in NW 5.0 mph 11.0 mph 80% 0.00 in
08:19 12.5 °F 7.5 °F 30.23 in WNW 4.0 mph 12.0 mph 80% 0.00 in
08:24 12.4 °F 7.4 °F 30.24 in West 13.0 mph 15.0 mph 80% 0.00 in
08:29 12.3 °F 6.7 °F 30.24 in West 7.0 mph 14.0 mph 78% 0.00 in
08:34 12.3 °F 6.2 °F 30.24 in WNW 9.0 mph 17.0 mph 76% 0.00 in
08:39 12.3 °F 5.6 °F 30.25 in NW 9.0 mph 14.0 mph 74% 0.00 in
08:44 12.3 °F 5.0 °F 30.25 in NW 11.0 mph 18.0 mph 72% 0.00 in
08:49 12.2 °F 4.3 °F 30.26 in West 3.0 mph 15.0 mph 70% 0.00 in
08:54 12.8 °F 4.5 °F 30.26 in WNW 7.0 mph 15.0 mph 69% 0.00 in
08:59 13.0 °F 4.4 °F 30.26 in WNW 8.0 mph 16.0 mph 68% 0.00 in
09:04 12.8 °F 4.2 °F 30.26 in West 9.0 mph 17.0 mph 68% 0.00 in
09:09 12.6 °F 4.0 °F 30.27 in West 8.0 mph 17.0 mph 68% 0.00 in
09:14 12.5 °F 3.9 °F 30.27 in WNW 8.0 mph 14.0 mph 68% 0.00 in
09:19 12.4 °F 3.8 °F 30.27 in West 8.0 mph 14.0 mph 68% 0.00 in
09:24 12.8 °F 4.2 °F 30.27 in NW 4.0 mph 15.0 mph 68% 0.00 in
09:29 13.0 °F 4.4 °F 30.27 in WNW 6.0 mph 15.0 mph 68% 0.00 in
09:34 12.8 °F 3.9 °F 30.28 in WNW 9.0 mph 18.0 mph 67% 0.00 in
09:39 12.8 °F 3.9 °F 30.28 in West 9.0 mph 15.0 mph 67% 0.00 in
09:44 12.7 °F 3.8 °F 30.28 in WNW 7.0 mph 13.0 mph 67% 0.00 in
09:49 12.6 °F 3.7 °F 30.28 in SW 6.0 mph 13.0 mph 67% 0.00 in
09:54 12.8 °F 3.9 °F 30.28 in WNW 8.0 mph 14.0 mph 67% 0.00 in
09:59 12.7 °F 3.8 °F 30.29 in West 8.0 mph 14.0 mph 67% 0.00 in
10:04 12.5 °F 3.6 °F 30.29 in WNW 7.0 mph 16.0 mph 67% 0.00 in
10:09 12.4 °F 3.8 °F 30.29 in NW 10.0 mph 15.0 mph 68% 0.00 in
10:14 12.5 °F 4.3 °F 30.30 in WNW 8.0 mph 15.0 mph 69% 0.00 in
10:19 12.8 °F 4.2 °F 30.30 in WNW 8.0 mph 14.0 mph 68% 0.00 in
10:24 12.6 °F 4.3 °F 30.30 in NW 5.0 mph 13.0 mph 69% 0.00 in
10:29 12.6 °F 4.7 °F 30.30 in NW 6.0 mph 13.0 mph 70% 0.00 in
10:34 12.2 °F 3.3 °F 30.30 in NNW 5.0 mph 13.0 mph 67% 0.00 in
10:39 11.9 °F 2.4 °F 30.31 in North 8.0 mph 15.0 mph 65% 0.00 in
10:44 12.5 °F 2.6 °F 30.30 in NW 5.0 mph 16.0 mph 64% 0.00 in
10:49 13.4 °F 3.5 °F 30.30 in WNW 5.0 mph 14.0 mph 64% 0.00 in
10:54 13.7 °F 3.8 °F 30.31 in NW 9.0 mph 14.0 mph 64% 0.00 in
10:59 13.7 °F 3.8 °F 30.31 in WNW 9.0 mph 15.0 mph 64% 0.00 in
11:04 14.1 °F 4.1 °F 30.31 in WNW 8.0 mph 15.0 mph 64% 0.00 in
11:09 14.1 °F 4.8 °F 30.31 in WNW 8.0 mph 14.0 mph 66% 0.00 in
11:14 14.5 °F 4.9 °F 30.31 in WNW 7.0 mph 14.0 mph 65% 0.00 in
11:19 14.3 °F 4.0 °F 30.31 in WNW 7.0 mph 16.0 mph 63% 0.00 in
11:24 14.0 °F 4.1 °F 30.32 in WNW 8.0 mph 16.0 mph 64% 0.00 in
11:29 14.2 °F 4.6 °F 30.32 in WSW 12.0 mph 19.0 mph 65% 0.00 in
11:34 14.0 °F 5.1 °F 30.32 in NW 7.0 mph 19.0 mph 67% 0.00 in
11:39 13.4 °F 5.1 °F 30.32 in NW 3.0 mph 12.0 mph 69% 0.00 in
11:44 12.5 °F 4.6 °F 30.32 in NW 6.0 mph 15.0 mph 70% 0.00 in
11:49 12.5 °F 4.9 °F 30.32 in WNW 4.0 mph 12.0 mph 71% 0.00 in
11:54 12.8 °F 4.9 °F 30.32 in WNW 8.0 mph 13.0 mph 70% 0.00 in
11:59 13.5 °F 4.9 °F 30.32 in NNW 12.0 mph 15.0 mph 68% 0.00 in
12:04 13.7 °F 4.4 °F 30.32 in NW 7.0 mph 15.0 mph 66% 0.00 in
12:09 14.5 °F 5.2 °F 30.32 in WNW 6.0 mph 15.0 mph 66% 0.00 in
12:14 15.0 °F 5.0 °F 30.32 in WNW 6.0 mph 16.0 mph 64% 0.00 in
12:19 15.1 °F 5.8 °F 30.32 in WNW 8.0 mph 17.0 mph 66% 0.00 in
12:24 15.3 °F 6.0 °F 30.33 in WNW 3.0 mph 12.0 mph 66% 0.00 in
12:29 14.8 °F 5.2 °F 30.33 in NW 6.0 mph 14.0 mph 65% 0.00 in
12:34 13.8 °F 4.9 °F 30.33 in WNW 6.0 mph 15.0 mph 67% 0.00 in
12:39 13.4 °F 4.5 °F 30.33 in WNW 6.0 mph 12.0 mph 67% 0.00 in
12:44 13.5 °F 4.6 °F 30.33 in West 6.0 mph 12.0 mph 67% 0.00 in
12:49 13.6 °F 5.0 °F 30.33 in NW 9.0 mph 9.0 mph 68% 0.00 in
12:54 13.9 °F 5.3 °F 30.33 in North 6.0 mph 12.0 mph 68% 0.00 in
12:59 13.7 °F 4.4 °F 30.33 in WSW 5.0 mph 13.0 mph 66% 0.00 in
13:04 13.8 °F 4.5 °F 30.33 in West 5.0 mph 17.0 mph 66% 0.00 in
13:09 13.6 °F 4.0 °F 30.33 in WNW 8.0 mph 17.0 mph 65% 0.00 in
13:14 13.8 °F 4.5 °F 30.33 in WNW 7.0 mph 14.0 mph 66% 0.00 in
13:19 14.5 °F 5.5 °F 30.33 in WNW 5.0 mph 12.0 mph 67% 0.00 in
13:24 14.3 °F 5.0 °F 30.33 in WNW 5.0 mph 12.0 mph 66% 0.00 in
13:29 14.3 °F 5.7 °F 30.33 in NNW 1.0 mph 12.0 mph 68% 0.00 in
13:34 13.8 °F 5.5 °F 30.32 in NW 4.0 mph 12.0 mph 69% 0.00 in
13:39 13.9 °F 5.9 °F 30.33 in NW 3.0 mph 9.0 mph 70% 0.00 in
13:44 14.6 °F 6.3 °F 30.32 in NNW 3.0 mph 10.0 mph 69% 0.00 in
13:49 14.9 °F 5.2 °F 30.33 in West 9.0 mph 14.0 mph 65% 0.00 in
13:54 15.4 °F 6.1 °F 30.32 in West 7.0 mph 10.0 mph 66% 0.00 in
13:59 15.0 °F 5.0 °F 30.32 in West 5.0 mph 11.0 mph 64% 0.00 in
14:04 14.8 °F 4.5 °F 30.32 in NW 6.0 mph 11.0 mph 63% 0.00 in
14:09 14.8 °F 5.2 °F 30.32 in NW 7.0 mph 11.0 mph 65% 0.00 in
14:14 14.5 °F 5.5 °F 30.32 in NW 4.0 mph 12.0 mph 67% 0.00 in
14:19 14.2 °F 5.6 °F 30.32 in WNW 5.0 mph 12.0 mph 68% 0.00 in
14:24 14.3 °F 5.7 °F 30.32 in NW 5.0 mph 15.0 mph 68% 0.00 in
14:29 15.8 °F 7.7 °F 30.32 in NW 5.0 mph 15.0 mph 70% 0.00 in
14:34 16.4 °F 7.3 °F 30.32 in NW 4.0 mph 12.0 mph 67% 0.00 in
14:39 16.1 °F 5.7 °F 30.33 in West 5.0 mph 12.0 mph 63% 0.00 in
14:44 15.9 °F 5.2 °F 30.33 in WNW 4.0 mph 14.0 mph 62% 0.00 in
14:49 14.8 °F 4.1 °F 30.33 in WNW 7.0 mph 14.0 mph 62% 0.00 in
14:54 14.7 °F 4.7 °F 30.33 in WNW 4.0 mph 13.0 mph 64% 0.00 in
14:59 16.0 °F 4.9 °F 30.33 in WNW 5.0 mph 15.0 mph 61% 0.00 in
15:04 15.6 °F 2.7 °F 30.33 in SW 12.0 mph 15.0 mph 56% 0.00 in
15:09 14.8 °F 2.7 °F 30.33 in West 6.0 mph 14.0 mph 58% 0.00 in
15:14 14.1 °F 2.4 °F 30.33 in WNW 7.0 mph 12.0 mph 59% 0.00 in
15:19 14.0 °F 3.0 °F 30.34 in West 7.0 mph 12.0 mph 61% 0.00 in
15:24 13.8 °F 3.2 °F 30.34 in WNW 6.0 mph 17.0 mph 62% 0.00 in
15:29 13.8 °F 3.9 °F 30.34 in West 4.0 mph 15.0 mph 64% 0.00 in
15:34 13.7 °F 4.1 °F 30.33 in West 4.0 mph 10.0 mph 65% 0.00 in
15:44 13.5 °F 4.6 °F 30.33 in WNW 4.0 mph 11.0 mph 67% 0.00 in
15:49 13.5 °F 4.6 °F 30.34 in WNW 4.0 mph 9.0 mph 67% 0.00 in
15:54 13.9 °F 5.0 °F 30.33 in WNW 4.0 mph 10.0 mph 67% 0.00 in
15:59 14.3 °F 4.7 °F 30.34 in WNW 4.0 mph 10.0 mph 65% 0.00 in
16:04 14.6 °F 4.6 °F 30.33 in WNW 4.0 mph 8.0 mph 64% 0.00 in
16:14 15.3 °F 4.2 °F 30.33 in West 2.0 mph 12.0 mph 61% 0.00 in
16:19 15.3 °F 3.5 °F 30.33 in WNW 7.0 mph 15.0 mph 59% 0.00 in
16:24 15.0 °F 2.5 °F 30.34 in WNW 7.0 mph 15.0 mph 57% 0.00 in
16:29 14.6 °F 1.7 °F 30.34 in West 7.0 mph 14.0 mph 56% 0.00 in
16:34 14.5 °F 2.4 °F 30.34 in West 7.0 mph 14.0 mph 58% 0.00 in
16:39 14.4 °F 2.3 °F 30.34 in West 7.0 mph 13.0 mph 58% 0.00 in
16:44 14.3 °F 1.8 °F 30.34 in West 7.0 mph 13.0 mph 57% 0.00 in
16:49 14.3 °F 1.8 °F 30.34 in West 7.0 mph 11.0 mph 57% 0.00 in
16:54 14.3 °F 2.2 °F 30.34 in West 6.0 mph 11.0 mph 58% 0.00 in
16:59 14.2 °F 2.1 °F 30.34 in West 6.0 mph 12.0 mph 58% 0.00 in
17:04 14.2 °F 2.1 °F 30.34 in West 6.0 mph 11.0 mph 58% 0.00 in
17:09 14.2 °F 1.7 °F 30.34 in West 5.0 mph 14.0 mph 57% 0.00 in
17:14 14.2 °F 1.7 °F 30.34 in SW 4.0 mph 15.0 mph 57% 0.00 in
17:19 14.0 °F 1.2 °F 30.34 in WSW 3.0 mph 19.0 mph 56% 0.00 in
17:24 13.8 °F 1.0 °F 30.35 in WSW 5.0 mph 15.0 mph 56% 0.00 in
17:29 13.7 °F 0.9 °F 30.35 in West 7.0 mph 15.0 mph 56% 0.00 in
17:34 13.6 °F 1.2 °F 30.35 in West 7.0 mph 14.0 mph 57% 0.00 in
17:39 13.5 °F 1.4 °F 30.35 in West 5.0 mph 12.0 mph 58% 0.00 in
17:44 13.5 °F 1.4 °F 30.35 in West 11.0 mph 13.0 mph 58% 0.00 in
17:49 13.4 °F 1.4 °F 30.36 in West 4.0 mph 16.0 mph 58% 0.00 in
17:54 13.3 °F 1.3 °F 30.36 in West 7.0 mph 13.0 mph 58% 0.00 in
17:59 13.3 °F 1.3 °F 30.36 in West 7.0 mph 15.0 mph 58% 0.00 in
18:04 13.3 °F 1.3 °F 30.36 in West 7.0 mph 15.0 mph 58% 0.00 in
18:09 13.3 °F 1.3 °F 30.37 in West 5.0 mph 13.0 mph 58% 0.00 in
18:14 13.4 °F 1.7 °F 30.36 in WSW 3.0 mph 9.0 mph 59% 0.00 in
18:19 13.5 °F 1.8 °F 30.37 in WSW 3.0 mph 14.0 mph 59% 0.00 in
18:24 13.5 °F 1.8 °F 30.37 in West 4.0 mph 12.0 mph 59% 0.00 in
18:29 13.4 °F 1.7 °F 30.37 in West 6.0 mph 12.0 mph 59% 0.00 in
18:34 13.3 °F 2.0 °F 30.37 in West 5.0 mph 12.0 mph 60% 0.00 in
18:39 13.3 °F 2.0 °F 30.37 in West 4.0 mph 12.0 mph 60% 0.00 in
18:44 13.2 °F 1.9 °F 30.37 in NW 2.0 mph 9.0 mph 60% 0.00 in
18:49 13.2 °F 2.3 °F 30.37 in West 4.0 mph 10.0 mph 61% 0.00 in
18:54 13.2 °F 2.3 °F 30.37 in WSW 5.0 mph 8.0 mph 61% 0.00 in
18:59 13.2 °F 2.3 °F 30.37 in WNW 7.0 mph 10.0 mph 61% 0.00 in
19:04 13.2 °F 2.6 °F 30.38 in West 5.0 mph 13.0 mph 62% 0.00 in
19:09 13.2 °F 2.6 °F 30.38 in West 6.0 mph 13.0 mph 62% 0.00 in
19:14 13.2 °F 2.6 °F 30.38 in West 7.0 mph 12.0 mph 62% 0.00 in
19:19 13.1 °F 2.9 °F 30.38 in West 6.0 mph 11.0 mph 63% 0.00 in
19:24 13.0 °F 3.1 °F 30.38 in West 5.0 mph 9.0 mph 64% 0.00 in
19:29 13.0 °F 3.4 °F 30.38 in WNW 4.0 mph 11.0 mph 65% 0.00 in
19:34 12.9 °F 3.7 °F 30.38 in West 6.0 mph 11.0 mph 66% 0.00 in
19:39 12.8 °F 3.6 °F 30.38 in West 6.0 mph 11.0 mph 66% 0.00 in
19:44 12.7 °F 3.5 °F 30.37 in West 3.0 mph 8.0 mph 66% 0.00 in
19:49 12.8 °F 3.6 °F 30.37 in West 2.0 mph 7.0 mph 66% 0.00 in
19:54 12.8 °F 3.9 °F 30.37 in West 4.0 mph 7.0 mph 67% 0.00 in
19:59 12.9 °F 4.0 °F 30.37 in West 4.0 mph 9.0 mph 67% 0.00 in
20:04 12.9 °F 4.0 °F 30.37 in West 6.0 mph 8.0 mph 67% 0.00 in
20:09 13.0 °F 4.1 °F 30.36 in WSW 5.0 mph 12.0 mph 67% 0.00 in
20:14 13.0 °F 4.1 °F 30.36 in WSW 5.0 mph 12.0 mph 67% 0.00 in
20:19 13.0 °F 4.1 °F 30.36 in WSW 4.0 mph 10.0 mph 67% 0.00 in
20:24 13.0 °F 3.8 °F 30.36 in WSW 4.0 mph 10.0 mph 66% 0.00 in
20:29 13.0 °F 3.8 °F 30.36 in WSW 4.0 mph 8.0 mph 66% 0.00 in
20:34 13.0 °F 3.8 °F 30.36 in West 3.0 mph 6.0 mph 66% 0.00 in
20:39 13.1 °F 3.9 °F 30.36 in West 3.0 mph 7.0 mph 66% 0.00 in
20:44 13.0 °F 3.4 °F 30.36 in West 3.0 mph 7.0 mph 65% 0.00 in
20:49 13.0 °F 3.4 °F 30.36 in West 6.0 mph 9.0 mph 65% 0.00 in
20:54 13.2 °F 3.6 °F 30.36 in WSW 3.0 mph 10.0 mph 65% 0.00 in
20:59 13.1 °F 3.5 °F 30.36 in West 3.0 mph 7.0 mph 65% 0.00 in
21:04 13.2 °F 3.3 °F 30.36 in West 3.0 mph 7.0 mph 64% 0.00 in
21:09 13.2 °F 3.3 °F 30.36 in West 5.0 mph 8.0 mph 64% 0.00 in
21:14 13.3 °F 3.4 °F 30.36 in West 4.0 mph 8.0 mph 64% 0.00 in
21:19 13.3 °F 3.4 °F 30.36 in WSW 3.0 mph 6.0 mph 64% 0.00 in
21:24 13.3 °F 3.4 °F 30.36 in West 3.0 mph 6.0 mph 64% 0.00 in
21:29 13.4 °F 3.5 °F 30.36 in West 3.0 mph 7.0 mph 64% 0.00 in
21:34 13.7 °F 3.4 °F 30.35 in WSW 5.0 mph 11.0 mph 63% 0.00 in
21:39 13.9 °F 3.6 °F 30.35 in West 6.0 mph 10.0 mph 63% 0.00 in
21:44 14.2 °F 3.6 °F 30.35 in West 5.0 mph 10.0 mph 62% 0.00 in
21:49 14.5 °F 3.8 °F 30.35 in West 8.0 mph 11.0 mph 62% 0.00 in
21:54 14.8 °F 3.8 °F 30.35 in West 5.0 mph 13.0 mph 61% 0.00 in
21:59 15.0 °F 4.0 °F 30.35 in West 9.0 mph 13.0 mph 61% 0.00 in
22:04 15.2 °F 5.2 °F 30.35 in West 7.0 mph 12.0 mph 64% 0.00 in
22:09 15.3 °F 5.3 °F 30.35 in SW 10.0 mph 10.0 mph 64% 0.00 in
22:14 15.5 °F 6.2 °F 30.35 in WSW 6.0 mph 15.0 mph 66% 0.00 in
22:19 15.5 °F 6.5 °F 30.34 in WSW 6.0 mph 15.0 mph 67% 0.00 in
22:24 15.6 °F 6.9 °F 30.34 in WSW 6.0 mph 14.0 mph 68% 0.00 in
22:29 15.5 °F 7.1 °F 30.34 in WSW 6.0 mph 14.0 mph 69% 0.00 in
22:34 15.4 °F 7.4 °F 30.34 in SW 7.0 mph 13.0 mph 70% 0.00 in
22:39 15.4 °F 7.7 °F 30.34 in SW 5.0 mph 12.0 mph 71% 0.00 in
22:44 15.4 °F 7.7 °F 30.34 in WSW 6.0 mph 14.0 mph 71% 0.00 in
22:49 15.5 °F 8.1 °F 30.34 in WSW 7.0 mph 14.0 mph 72% 0.00 in
22:54 15.5 °F 8.1 °F 30.34 in WSW 8.0 mph 14.0 mph 72% 0.00 in
22:59 15.6 °F 8.2 °F 30.34 in WNW 8.0 mph 14.0 mph 72% 0.00 in
23:04 15.6 °F 8.5 °F 30.34 in WSW 7.0 mph 14.0 mph 73% 0.00 in
23:09 15.6 °F 8.5 °F 30.33 in WSW 9.0 mph 11.0 mph 73% 0.00 in
23:14 15.6 °F 8.8 °F 30.33 in SW 5.0 mph 11.0 mph 74% 0.00 in
23:19 15.7 °F 9.2 °F 30.33 in WSW 6.0 mph 11.0 mph 75% 0.00 in
23:24 15.6 °F 9.4 °F 30.34 in WSW 5.0 mph 10.0 mph 76% 0.00 in
23:29 15.5 °F 9.6 °F 30.33 in WSW 5.0 mph 10.0 mph 77% 0.00 in
23:34 15.4 °F 9.8 °F 30.33 in WSW 5.0 mph 9.0 mph 78% 0.00 in
23:39 15.2 °F 9.9 °F 30.33 in WSW 6.0 mph 9.0 mph 79% 0.00 in
23:44 15.0 °F 9.9 °F 30.33 in West 5.0 mph 8.0 mph 80% 0.00 in
23:49 15.0 °F 10.2 °F 30.33 in WSW 5.0 mph 8.0 mph 81% 0.00 in
23:54 14.8 °F 10.0 °F 30.33 in WSW 5.0 mph 8.0 mph 81% 0.00 in
23:59 14.7 °F 10.2 °F 30.33 in WSW 5.0 mph 8.0 mph 82% 0.00 in
Buffalo, New York, USA
Compliments of Weather Underground - 2.75 mb